Regional Weather Roundup
Issued by NWS

Home | Current Version | Previous Version | Graphics & Text | Print | Product List | Glossary On
Versions: 1 2 3 4 5 6 7 8 9 10 11 12 13 14 15 16 17 18 19 20 21 22 23 24 25 26 27 28 29 30 31 32 33 34 35 36 37 38 39 40 41 42 43 44 45 46 47 48 49 50
000
ASUS43 KFSD 230902
RWRSD

WEATHER ROUNDUP FOR SOUTH DAKOTA
NATIONAL WEATHER SERVICE SIOUX FALLS SD
300 AM CST SUN NOV 23 2014

NOTE: "FAIR" INDICATES FEW OR NO CLOUDS BELOW 12,000 FEET WITH NO
SIGNIFICANT WEATHER AND/OR OBSTRUCTIONS TO VISIBILITY.


SDZ001>005-009-010-012>017-231000-
NORTHWEST AND NORTH CENTRAL SOUTH DAKOTA

CITY           SKY/WX    TMP DP  RH WIND       PRES   REMARKS
BUFFALO          N/A     36  29  75 W30G44    29.48R
FAITH            N/A     37  31  78 W14       29.52R
MOBRIDGE       LGT RAIN  40  37  89 NW10      29.47R
$$

SDZ012>016-024>037-041>051-057-063-072>074-231000-
SOUTHWEST AND SOUTH CENTRAL SOUTH DAKOTA

CITY           SKY/WX    TMP DP  RH WIND       PRES   REMARKS
RAPID CTY ARPT CLOUDY    41  21  44 NW15      29.58R
PIERRE         CLOUDY    40  37  89 NW24G31   29.46R
CUSTER         PTCLDY    31  14  49 NW8       29.57R WCI  23
ELLSWORTH AFB  CLOUDY    40  21  45 NW25      29.56R
PHILIP         CLOUDY    45  33  63 NW13      29.55R
PINE RIDGE     CLOUDY    36  33  89 SW5       29.61R
WINNER         FAIR      40  32  73 NW18      29.47R
$$

SDZ004>011-016>023-039-040-231000-
NORTHEAST SOUTH DAKOTA

CITY           SKY/WX    TMP DP  RH WIND       PRES   REMARKS
ABERDEEN       CLOUDY    37  33  85 W6        29.42S
WATERTOWN      CLOUDY    34  31  88 CALM      29.40S
SISSETON         N/A     40  33  76 W8        29.39R
$$

SDZ017-020-022-023-036>040-048>070-231000-
SOUTHEAST SOUTH DAKOTA

CITY           SKY/WX    TMP DP  RH WIND       PRES   REMARKS
SIOUX FALLS    CLOUDY    42  40  92 CALM      29.40F
HURON          CLOUDY    35  31  85 W6        29.43R
CHAMBERLAIN    MOCLDY    35  31  85 NW7       29.45R WCI  29
MITCHELL       MOCLDY    38  33  82 E3        29.40S
YANKTON        CLOUDY    45  37  76 CALM      29.42R
$$

ABBREVIATIONS USED IN REMARKS
   TC - TEMPERATURE IN CELSIUS
  WCI - WIND CHILL INDEX
   HX - HEAT INDEX
  VSB - VISIBILITY



USA.gov is the U.S. government's official web portal to all federal, state and local government web resources and services.